Weather History for Glenwood, MN

Change the Weather History Date:

Thursday, March 15, 2012

  Actual Average Record
Temperature  
Mean Temperature 48 °F -  
Max Temperature 62 °F 38 °F 62 °F (2012)
Min Temperature 35 °F 18 °F -13 °F (1997)
Degree Days  
Heating Degree Days 16    
Moisture  
Dew Point 23 °F    
Average Humidity 40    
Maximum Humidity 65    
Minimum Humidity 23    
Precipitation  
Precipitation 0.00 in - - ()
Sea Level Pressure  
Sea Level Pressure 30.01 in    
Wind  
Wind Speed 9 mph (ENE)    
Max Wind Speed 16 mph    
Max Gust Speed -    
Visibility 10 miles    
Events      
Averages and records for this station are not official NWS values.
T = Trace of Precipitation, MM = Missing Value Source: NWS Daily Summary

Daily Weather History Graph

Daily Weather History Graph

Search for Another Location

Airport:

Trip Planner

Search our weather history database for the weather conditions in past years. The results will help you decide how hot, cold, wet, or windy it might be!

Date:

Astronomy

Mar. 15, 2012 Rise Set
Actual Time 7:32 AM CDT 7:27 PM CDT
Civil Twilight 7:03 AM CDT 7:57 PM CDT
Nautical Twilight 6:28 AM CDT 8:32 PM CDT
Astronomical Twilight 5:53 AM CDT 9:07 PM CDT
Moon 3:19 AM CDT (3/15) 12:28 PM CDT (3/15)
Length of Visible Light 12h 54m
Length of Day
11h 55m
Last Quarter, 43% of the Moon is Illuminated
Mar 15
Last Quarter
Mar 22
New
Mar 30
First Quarter
Apr 6
Full
Apr 13
Last Quarter

Hourly Weather History & Observations

Time (CDT) Temp. Windchill Dew Point Humidity Pressure Visibility Wind Dir Wind Speed Gust Speed Precip Events Conditions
12:13 AM 39.2 °F 32.5 °F 23.0 °F 52% 29.97 in 10.0 mi North 10.4 mph - N/A   Clear
12:34 AM 39.2 °F 32.5 °F 23.0 °F 52% 29.98 in 10.0 mi North 10.4 mph - N/A   Clear
12:54 AM 39.2 °F 32.5 °F 23.0 °F 52% 29.98 in 10.0 mi North 10.4 mph - N/A   Clear
1:14 AM 39.2 °F 32.5 °F 23.0 °F 52% 29.99 in 10.0 mi NNE 10.4 mph - N/A   Clear
1:33 AM 39.2 °F 32.5 °F 23.0 °F 52% 29.98 in 10.0 mi NE 10.4 mph - N/A   Clear
1:54 AM 35.6 °F 28.6 °F 24.8 °F 65% 29.98 in 10.0 mi NE 9.2 mph - N/A   Clear
2:14 AM 35.6 °F 29.2 °F 23.0 °F 60% 29.99 in 10.0 mi NE 8.1 mph - N/A   Clear
2:34 AM 35.6 °F 29.2 °F 21.2 °F 56% 30.00 in 10.0 mi North 8.1 mph - N/A   Clear
2:53 AM 35.6 °F 29.2 °F 21.2 °F 56% 30.00 in 10.0 mi NNE 8.1 mph - N/A   Clear
3:13 AM 35.6 °F 29.2 °F 21.2 °F 56% 30.01 in 10.0 mi North 8.1 mph - N/A   Clear
3:33 AM 35.6 °F 28.6 °F 21.2 °F 56% 30.00 in 10.0 mi NNE 9.2 mph - N/A   Clear
3:54 AM 37.4 °F 31.4 °F 21.2 °F 52% 30.02 in 10.0 mi North 8.1 mph - N/A   Clear
4:14 AM 35.6 °F 28.6 °F 21.2 °F 56% 30.02 in 10.0 mi North 9.2 mph - N/A   Clear
4:34 AM 35.6 °F 29.2 °F 21.2 °F 56% 30.02 in 10.0 mi NNE 8.1 mph - N/A   Clear
5:13 AM 37.4 °F 31.4 °F 21.2 °F 52% 30.03 in 10.0 mi NNE 8.1 mph - N/A   Clear
5:34 AM 35.6 °F 28.6 °F 21.2 °F 56% 30.04 in 10.0 mi NE 9.2 mph - N/A   Clear
5:54 AM 35.6 °F 28.6 °F 21.2 °F 56% 30.05 in 10.0 mi NE 9.2 mph - N/A   Clear
6:14 AM 35.6 °F 29.2 °F 19.4 °F 52% 30.06 in 10.0 mi NNE 8.1 mph - N/A   Clear
6:33 AM 35.6 °F 27.5 °F 21.2 °F 56% 30.05 in 10.0 mi NNE 11.5 mph - N/A   Clear
6:54 AM 35.6 °F 27.5 °F 21.2 °F 56% 30.05 in 10.0 mi NE 11.5 mph - N/A   Clear
7:14 AM 35.6 °F 27.1 °F 19.4 °F 52% 30.05 in 10.0 mi NE 12.7 mph - N/A   Clear
7:34 AM 37.4 °F 28.9 °F 19.4 °F 48% 30.03 in 10.0 mi NE 13.8 mph - N/A   Scattered Clouds
7:53 AM 37.4 °F 28.2 °F 19.4 °F 48% 30.02 in 10.0 mi ENE 16.1 mph - N/A   Scattered Clouds
8:14 AM 37.4 °F 28.9 °F 17.6 °F 45% 30.03 in 10.0 mi ENE 13.8 mph - N/A   Clear
8:34 AM 39.2 °F 31.6 °F 15.8 °F 39% 30.02 in 10.0 mi ENE 12.7 mph - N/A   Clear
8:54 AM 42.8 °F 35.8 °F 17.6 °F 36% 30.02 in 10.0 mi East 13.8 mph - N/A   Clear
9:14 AM 42.8 °F 37.5 °F 19.4 °F 39% 30.03 in 10.0 mi East 9.2 mph - N/A   Clear
9:33 AM 44.6 °F 41.4 °F 17.6 °F 34% 30.06 in 10.0 mi ENE 5.8 mph - N/A   Clear
9:54 AM 46.4 °F - 17.6 °F 32% 30.08 in 10.0 mi Calm Calm - N/A   Clear
10:14 AM 48.2 °F - 17.6 °F 30% 30.07 in 10.0 mi ENE 6.9 mph - N/A   Clear
10:34 AM 50.0 °F - 17.6 °F 28% 30.07 in 10.0 mi ENE 9.2 mph - N/A   Clear
10:53 AM 51.8 °F - 19.4 °F 28% 30.06 in 10.0 mi ENE 9.2 mph - N/A   Clear
11:13 AM 51.8 °F - 17.6 °F 26% 30.05 in 10.0 mi ENE 13.8 mph - N/A   Clear
11:33 AM 51.8 °F - 19.4 °F 28% 30.03 in 10.0 mi East 15.0 mph - N/A   Clear
11:53 AM 53.6 °F - 21.2 °F 28% 30.03 in 10.0 mi East 11.5 mph - N/A   Clear
12:14 PM 55.4 °F - 21.2 °F 26% 30.02 in 10.0 mi East 11.5 mph - N/A   Clear
12:33 PM 55.4 °F - 23.0 °F 29% 30.01 in 10.0 mi East 13.8 mph - N/A   Clear
12:53 PM 57.2 °F - 23.0 °F 27% 30.03 in 10.0 mi East 6.9 mph - N/A   Clear
1:13 PM 57.2 °F - 23.0 °F 27% 30.04 in 10.0 mi East 4.6 mph - N/A   Clear
1:34 PM 57.2 °F - 23.0 °F 27% 30.03 in 10.0 mi East 4.6 mph - N/A   Clear
1:54 PM 57.2 °F - 21.2 °F 25% 30.03 in 10.0 mi ESE 3.5 mph - N/A   Clear
2:14 PM 57.2 °F - 23.0 °F 27% 30.02 in 10.0 mi East 4.6 mph - N/A   Clear
2:33 PM 60.8 °F - 23.0 °F 23% 30.02 in 10.0 mi East 3.5 mph - N/A   Clear
2:54 PM 60.8 °F - 24.8 °F 25% 30.01 in 10.0 mi ESE 3.5 mph - N/A   Clear
3:13 PM 62.6 °F - 24.8 °F 24% 30.00 in 10.0 mi Calm Calm - N/A   Clear
3:34 PM 62.6 °F - 24.8 °F 24% 29.99 in 10.0 mi ENE 4.6 mph - N/A   Clear
3:53 PM 62.6 °F - 26.6 °F 26% 29.99 in 10.0 mi ENE 5.8 mph - N/A   Clear
4:14 PM 62.6 °F - 26.6 °F 26% 29.99 in 10.0 mi NNE 4.6 mph - N/A   Clear
4:33 PM 62.6 °F - 28.4 °F 27% 29.98 in 10.0 mi ENE 6.9 mph - N/A   Clear
4:53 PM 62.6 °F - 28.4 °F 27% 29.98 in 10.0 mi East 8.1 mph - N/A   Clear
5:14 PM 62.6 °F - 30.2 °F 30% 29.97 in 10.0 mi NE 8.1 mph - N/A   Clear
5:34 PM 62.6 °F - 30.2 °F 30% 29.97 in 10.0 mi ENE 6.9 mph - N/A   Clear
5:54 PM 62.6 °F - 30.2 °F 30% 29.97 in 10.0 mi East 8.1 mph - N/A   Clear
6:14 PM 62.6 °F - 32.0 °F 32% 29.97 in 10.0 mi East 8.1 mph - N/A   Clear
6:34 PM 60.8 °F - 33.8 °F 36% 29.97 in 10.0 mi East 5.8 mph - N/A   Clear
6:53 PM 57.2 °F - 35.6 °F 44% 29.97 in 10.0 mi East 8.1 mph - N/A   Clear
7:14 PM 53.6 °F - 35.6 °F 51% 29.97 in 10.0 mi East 5.8 mph - N/A   Clear
7:34 PM 51.8 °F - 35.6 °F 54% 29.98 in 10.0 mi East 6.9 mph - N/A   Clear
7:54 PM 51.8 °F - 33.8 °F 50% 29.98 in 10.0 mi ENE 4.6 mph - N/A   Clear
8:14 PM 48.2 °F - 33.8 °F 58% 29.99 in 10.0 mi ENE 6.9 mph - N/A   Clear
8:33 PM 48.2 °F - 33.8 °F 58% 29.99 in 10.0 mi ENE 6.9 mph - N/A   Clear
8:54 PM 46.4 °F 42.9 °F 33.8 °F 62% 29.99 in 10.0 mi ENE 6.9 mph - N/A   Clear
9:14 PM 46.4 °F 42.9 °F 33.8 °F 62% 29.99 in 10.0 mi ENE 6.9 mph - N/A   Clear
9:34 PM 46.4 °F 42.9 °F 33.8 °F 62% 29.99 in 10.0 mi East 6.9 mph - N/A   Clear
9:53 PM 46.4 °F 43.5 °F 32.0 °F 57% 29.99 in 10.0 mi ENE 5.8 mph - N/A   Clear
10:14 PM 46.4 °F 43.5 °F 32.0 °F 57% 29.99 in 10.0 mi ENE 5.8 mph - N/A   Clear
10:34 PM 46.4 °F 44.3 °F 32.0 °F 57% 29.99 in 10.0 mi NE 4.6 mph - N/A   Clear
10:53 PM 44.6 °F 41.4 °F 32.0 °F 61% 29.99 in 10.0 mi ENE 5.8 mph - N/A   Clear
11:14 PM 42.8 °F 39.3 °F 32.0 °F 66% 29.98 in 10.0 mi ENE 5.8 mph - N/A   Clear
11:27 PM 42.8 °F 40.1 °F 30.2 °F 61% 29.98 in 10.0 mi ENE 4.6 mph - N/A   Clear
11:54 PM 41.0 °F 37.1 °F 30.2 °F 65% 29.97 in 10.0 mi ENE 5.8 mph - N/A   Clear